Regional Weather Roundup
Issued by NWS

Home | Current Version | Previous Version | Graphics & Text | Print | Product List | Glossary Off
Versions: 1 2 3 4 5 6 7 8 9 10 11 12 13 14 15 16 17 18 19 20 21 22 23 24 25 26 27 28 29 30 31 32 33 34 35 36 37 38 39 40 41 42 43 44 45 46 47 48 49 50

000
ASUS43 KDMX 230401
RWRIA

WEATHER ROUNDUP FOR IOWA
NATIONAL WEATHER SERVICE DES MOINES IA
1100 PM CDT MON MAY 22 2017

NOTE: "FAIR" INDICATES FEW OR NO CLOUDS BELOW 12,000 FEET WITH NO
SIGNIFICANT WEATHER AND/OR OBSTRUCTIONS TO VISIBILITY.

* - THESE STATIONS ARE NOT NWS STATIONS...THUS NOT UNDER NWS
QUALITY CONTROL.  THEY ALSO DO NOT REPORT WEATHER SUCH
AS PRECIPITATION OR FOG.

IAZ001>003-012>014-020>022-031>034-043>046-230500-
   NORTHWEST IOWA

CITY           SKY/WX    TMP DP  RH WIND       PRES   REMARKS
CARROLL *      CLOUDY    57  50  77 NW12      29.87S
CHEROKEE *     MOCLDY    50  48  92 NW8       29.91R
DENISON *      CLEAR     55  48  76 NW7G14    29.90S
LE MARS *      CLOUDY    54  46  76 N8        29.93S
ORANGE CITY *  CLOUDY    52  46  82 N8        29.92S
SHELDON *      CLOUDY    52  45  76 N13         N/A
SIOUX CITY     PTCLDY    52  47  83 NW9       29.94R
SPENCER        CLOUDY    52  50  93 NW10      29.89S
STORM LAKE *   MOCLDY    52  48  87 NW9G15    29.89S
$$

IAZ055>058-069>071-079>083-090>094-230500-
   SOUTHWEST IOWA

CITY           SKY/WX    TMP DP  RH WIND       PRES   REMARKS
ATLANTIC *     CLOUDY    55  54  94 W7        29.89R
AUDUBON *      CLOUDY    54  48  82 CALM      29.89S
CLARINDA *     CLOUDY    59  55  88 SW3       29.91S
COUNCIL BLFS * CLOUDY    57  57 100 SW5       29.90R
CRESTON *      CLOUDY    57  54  88 SW5       29.89S
HARLAN  *      PTCLDY    54  52  94 NW5       29.92S
LAMONI         MOCLDY    55  52  89 SW8       29.88F
RED OAK *      CLOUDY    57  54  88 W7        29.89S
SHENANDOAH *   CLOUDY    59  55  88 W3        29.90R
$$

IAZ047>049-059>061-072>074-084-230500-
   CENTRAL IOWA

CITY           SKY/WX    TMP DP  RH WIND       PRES   REMARKS
AMES           CLOUDY    56  51  84 W7        29.85F
ANKENY *       DRIZZLE   57  54  88 NW6       29.87R
BOONE *        CLOUDY    55  55 100 W5        29.85F
DES MOINES     CLOUDY    58  52  80 W3        29.86R
GRINNELL*      CLOUDY    56  52  86 SW3       29.86S
MARSHALLTOWN   PTCLDY    56  54  93 W9        29.83F
NEWTON *       CLOUDY    59  50  72 NW5       29.85R
PELLA *        CLOUDY    58  53  82 SW9       29.87R
PERRY *          N/A     56  55  95 W7        29.87S
$$

IAZ004>006-015-016-023>025-035-036-230500-
   NORTH CENTRAL IOWA

CITY           SKY/WX    TMP DP  RH WIND       PRES   REMARKS
ALGONA *       LGT RAIN  54  54 100 N12       29.86S
CLARION *      CLOUDY    54  54 100 NW6       29.85S
ESTHERVILLE    CLOUDY    51  50  96 N9        29.87S
FORT DODGE *   CLEAR     52  48  87 CALM      29.86S
MASON CITY     CLOUDY    51  50  96 W6        29.85R
FOREST CITY *  CLOUDY    52  46  82 N7        29.85S
WEBSTER CITY * CLOUDY    54  52  94 W5        29.83F
IOWA FALLS *   MOCLDY    56  54  91 W7        29.85S
$$

IAZ007>011-017>019-026>030-037>042-050>054-066-230500-
   NORTHEAST IOWA

CITY           SKY/WX    TMP DP  RH WIND       PRES   REMARKS
CEDAR RAPIDS   PTCLDY    57  55  93 SW9       29.83F
CHARLES CITY * MOCLDY    54  54 100 W7        29.82F
CLINTON *      PTCLDY    57  55  93 S10       29.88S
DECORAH *      LGT RAIN  54  54 100 NE7       29.81F
DUBUQUE        MOCLDY    57  54  89 SW10      29.84S
MONTICELLO *   MOCLDY    59  55  88 S8        29.83S
OELWEIN *      CLOUDY    55  54  94 S7        29.82F
WATERLOO       CLOUDY    54  51  90 SW5       29.81F
$$

IAZ064-065-067-068-078-230500-
   EAST CENTRAL IOWA

CITY           SKY/WX    TMP DP  RH WIND       PRES   REMARKS
DAVENPORT      PTCLDY    59  53  80 S12       29.87F
IOWA CITY      PTCLDY    60  53  77 SW9       29.86F
MT. PLEASANT * CLOUDY    56  51  84 S10       29.88F
MUSCATINE *    MOCLDY    59  52  77 S9        29.87F
QUAD CITIES    CLOUDY    60  53  77 SW9       29.87F
$$

IAZ062-063-075>077-085>089-095>099-230500-
   SOUTHEAST IOWA

CITY           SKY/WX    TMP DP  RH WIND       PRES   REMARKS
BURLINGTON     PTCLDY    58  54  86 S10       29.89F
FAIRFIELD *    MOCLDY    57  52  82 SW7       29.87S
FORT MADISON * LGT RAIN  59  54  82 S14G21    29.90F
KEOKUK *       CLOUDY    57  54  88 S7        29.90F
OSKALOOSA *      N/A     55  51  86 SW10      29.86F
OTTUMWA        CLOUDY    56  53  90 SW6       29.87S
WASHINGTON *     N/A     57  54  88 SW9       29.88S
$$

ABBREVIATIONS USED IN REMARKS
   TC - TEMPERATURES IN CELSIUS
  WCI - WIND CHILL INDEX
   HX - HEAT INDEX
  VSB - VISIBILITY
$$





USA.gov is the U.S. government's official web portal to all federal, state and local government web resources and services.